ARIANE 5 R/B, 44802

Orbit data source: Space-Track

ARIANE 5 R/B, 44802 is space debris in HEO originally from a launch on Tue, 26 Nov 2019 UTC launched from the French Guiana (FRGUI). Debris objects in space refer to the collection of defunct objects orbiting the Earth. Examples of debris include non-operational satellites, rocket bodies, and fragments generated from explosions, collisions, or faulty payload assembly.

Loading next visibility...
Identifier
44802, 2019-080C
Orbit
HEO
Last TLE update
23 hours ago
Origin
Manufacturer
ArianeGroup
Mission
Spacecraft
Bus & Motor
ESC-A, Unknown motor
Mass
~5,000 kg wet, ~5,000 kg dry
Launch date (UTC)
2019-11-26 (5 years ago)
Launch vehicle
Unknown
Launch site
French Guiana (FRGUI)
Object type
Payload
Rocket body
Debris
Shape & HBR
Cyl + 1 Nozzle, 7 m
Radar Cross Section
41.627 m², Large (>1 m²)

Expand to show TLE details & history

TLE from 23 hours ago
0 ARIANE 5 R/B
1 44802U 19080C   25128.27883452  .00007739  00000-0  12407-2 0  9995
2 44802   5.6481  23.2687 7023773 175.0929 199.6604  2.62307537 48578
Epoch: 2025-05-08T06:41Z
Definitive object data (Epoch: 2025-05-08T06:41:31.302Z)
Latitude
-0.00003°
Longitude
56.49912°
Altitude
31,125.573 km
Speed
1.819 km/s
True Right ascension
01h 32m 55s
True Declination
0° 00' 00"
Sunlit
Object was in daylight at TLE epoch
Visualization TLE readout
Latitude
-5.56411°
Longitude
-23.57342°
Altitude
7,198.782 km
Speed
6.385 km/s
Apparent Right ascension
21h 29m 07s
Apparent Declination
-19° 54' 26"
Sunlit
Object is in daylight
Visualization observer readout
Local Sidereal Time
13:47:43
Azimuth
90.192° ESE
Elevation
-31.82°
Doppler factor
1
Orbital elements
Apogee altitude
31,439.122 km
Perigee altitude
233.367 km
Semi-major axis
22,214.382 km
Eccentricity
0.7023773
Inclination
5.6481°
RAAN
23.2687°
Arg. of periapsis
175.0929°
True anomaly
184.85605°
Mean anomaly
199.6604°
Eccentric anomaly
191.58126°
Mean motion
0.65553 °/min
BSTAR
0.0012407
Orbital period
549.17 mins
Loading maneuver chart data...
Loading SW <> Apogee altitude chart data...
Loading historical data...
Loading historical data...
Loading historical data...
Loading historical data...
Loading historical data...
Loading historical data...
Loading historical data...
Other satellites on launch #80 in the year 2019 (2019-11-26 UTC)

ARIANE 5 R/B Visibility forecast

Observer location: undefined°, undefined°

Span
Click to sort rows by Start time (UTC) header in descending order
Start Az.
Max El. time (UTC)
Max El. Az.
Max El.
End time (UTC)
End Az.
488 mins2025-05-09 14:56:01.367Z223.253° SW2025-05-09 17:38:01.367Z208.161° SW30.941°2025-05-09 23:04:01.367Z152.009° SSE
|